CW0774 Weather Reports


time (UTC)temp
F
wind
direction
speed
knots
gust
knots
rain 1hr
in
rain 24hr
in
rain mn
in
humidity
%
barometer
mb
20260502151902 45 247 0.9 5.2 0.00 0.00 0.00 97 1016.9
20260502151404 45 45 0.0 5.2 0.00 0.00 0.00 97 1017.0
20260502150403 45 192 0.9 5.2 0.00 0.00 0.00 96 1017.3
20260502123402 45 8 0.0 5.2 0.00 0.00 0.00 92 1018.4
20260502122902 45 184 0.9 5.2 0.00 0.00 0.00 92 1018.5
20260502121902 45 191 0.0 0.0 0.00 0.00 0.00 92 1018.4
20260502120903 45 191 0.0 2.6 0.00 0.00 0.00 92 1018.4
20260502120403 45 191 0.9 2.6 0.00 0.00 0.00 92 1018.2
20260502115904 45 17 0.0 0.0 0.00 0.00 0.00 92 1018.0
20260502115402 45 17 0.0 0.0 0.00 0.00 0.00 92 1017.9
20260502114904 44 17 0.0 0.0 0.00 0.00 0.00 92 1017.8
20260502114404 44 17 0.0 0.0 0.00 0.00 0.00 92 1017.8
20260502112403 43 17 0.0 0.0 0.00 0.00 0.00 92 1017.9
20260502111903 43 17 0.0 0.0 0.00 0.00 0.00 92 1018.0
20260502111403 43 17 0.0 0.0 0.00 0.00 0.00 92 1018.0
20260502110903 43 17 0.0 0.0 0.00 0.00 0.00 92 1017.9
20260502110404 43 17 0.0 0.0 0.00 0.00 0.00 92 1017.7
20260502105904 42 17 0.0 0.0 0.00 0.00 0.00 91 1017.8
20260502103403 42 17 0.0 0.0 0.00 0.00 0.00 91 1017.0
20260502102903 42 17 0.0 0.0 0.00 0.00 0.00 90 1017.0
20260502102402 41 17 0.0 0.0 0.00 0.00 0.00 90 1017.1
20260502101902 41 17 0.0 0.0 0.00 0.00 0.00 90 1017.2
20260502101402 41 17 0.0 0.0 0.00 0.00 0.00 90 1017.2
20260502100902 41 17 0.0 0.0 0.00 0.00 0.00 90 1017.1
20260502100402 41 17 0.0 0.0 0.00 0.00 0.00 90 1016.9
20260502091403 42 17 0.0 0.0 0.00 0.00 0.00 87 1017.2
20260502090903 42 17 0.0 0.0 0.00 0.00 0.00 87 1017.4
20260502071402 41 17 0.0 0.0 0.00 0.00 0.00 84 1017.0
20260502070903 41 17 0.0 0.0 0.00 0.00 0.00 84 1016.9
20260502070404 41 17 0.0 0.0 0.00 0.00 0.00 84 1017.0
20260502065403 40 17 0.0 0.0 0.00 0.00 0.00 83 1016.9
20260502064903 40 17 0.0 0.0 0.00 0.00 0.00 83 1016.8
20260502064403 40 17 0.0 0.0 0.00 0.00 0.00 82 1016.8
20260502063903 40 17 0.0 0.0 0.00 0.00 0.00 80 1016.8
20260502063404 40 17 0.0 0.0 0.00 0.00 0.00 80 1016.7
20260502062404 40 17 0.0 0.0 0.00 0.00 0.00 79 1016.7
20260502061904 40 17 0.0 0.0 0.00 0.00 0.00 79 1016.8
20260502061403 40 17 0.0 0.0 0.00 0.00 0.00 78 1016.8
20260502060903 40 17 0.0 0.0 0.00 0.00 0.00 78 1016.8
20260502060403 40 17 0.0 0.0 0.00 0.00 0.00 78 1016.7
20260502055904 40 17 0.0 0.0 0.00 0.00 0.00 78 1016.8
20260502055404 40 17 0.0 0.0 0.00 0.00 0.00 77 1016.8
20260502054903 40 17 0.0 0.0 0.00 0.00 0.00 77 1016.8
20260502054402 40 17 0.0 0.0 0.00 0.00 0.00 77 1016.8
20260502053405 41 17 0.0 0.0 0.00 0.00 0.00 76 1016.6
20260502052903 41 17 0.0 0.0 0.00 0.00 0.00 75 1016.7
20260502052404 41 17 0.0 0.0 0.00 0.00 0.00 75 1016.8
20260502051404 41 17 0.0 0.0 0.00 0.00 0.00 75 1016.7
20260502050903 41 17 0.0 0.0 0.00 0.00 0.00 74 1016.8
20260502050403 41 17 0.0 0.0 0.00 0.00 0.00 74 1016.8
20260502045902 41 17 0.0 0.0 0.00 0.00 0.00 74 1016.8
20260502045404 41 17 0.0 0.0 0.00 0.00 0.00 74 1016.8
20260502044903 42 17 0.0 0.0 0.00 0.00 0.00 74 1016.8
20260502043903 42 17 0.0 0.0 0.00 0.00 0.00 74 1016.8
20260502043403 42 17 0.0 0.0 0.00 0.00 0.00 73 1016.7
20260502042403 42 17 0.0 0.0 0.00 0.00 0.00 73 1016.7
20260502041903 42 17 0.0 0.0 0.00 0.00 0.00 72 1016.8
20260502041402 43 17 0.0 0.0 0.00 0.00 0.00 72 1016.8
20260502040903 43 17 0.0 0.0 0.00 0.00 0.00 72 1016.7
20260502040403 43 17 0.0 0.0 0.00 0.00 0.00 72 1016.7
20260502035904 43 17 0.0 0.0 0.00 0.00 0.00 72 1016.6
20260502035404 43 17 0.0 0.0 0.00 0.00 0.00 71 1016.7
20260502034903 44 17 0.0 0.0 0.00 0.00 0.00 71 1016.6
20260502034404 44 17 0.0 0.0 0.00 0.00 0.00 70 1016.6
20260502033904 44 17 0.0 0.0 0.00 0.00 0.00 70 1016.6
20260502033403 44 17 0.0 0.0 0.00 0.00 0.00 70 1016.6
20260502032903 45 17 0.0 0.0 0.00 0.00 0.00 69 1016.6
20260502031903 45 17 0.0 0.0 0.00 0.00 0.00 69 1016.6
20260502031403 45 17 0.0 0.0 0.00 0.00 0.00 68 1016.6
20260502030903 46 17 0.0 0.0 0.00 0.00 0.00 68 1016.5
20260502025902 46 17 0.0 0.0 0.00 0.00 0.00 67 1016.4
20260502025402 46 17 0.0 0.0 0.00 0.00 0.00 67 1016.4
20260502024904 47 17 0.0 0.0 0.00 0.00 0.00 66 1016.4
20260502024405 47 17 0.0 0.0 0.00 0.00 0.00 66 1016.4
20260502023903 47 17 0.0 0.0 0.00 0.00 0.00 66 1016.3
20260502022903 48 17 0.0 0.0 0.00 0.00 0.00 64 1016.3
20260502022403 48 17 0.0 0.0 0.00 0.00 0.00 63 1016.3
20260502021403 48 17 0.0 0.0 0.00 0.00 0.00 63 1016.2
20260502020903 49 17 0.0 0.0 0.00 0.00 0.00 62 1016.2
20260502020404 49 17 0.0 0.0 0.00 0.00 0.00 62 1016.1
20260502015903 49 17 0.0 0.0 0.00 0.00 0.00 61 1016.1
20260502015403 49 17 0.0 0.0 0.00 0.00 0.00 60 1016.0
20260502014903 50 17 0.0 0.0 0.00 0.00 0.00 60 1016.0
20260502014403 50 17 0.0 0.0 0.00 0.00 0.00 58 1016.0
20260502013903 50 17 0.0 0.0 0.00 0.00 0.00 58 1016.0
20260502013403 51 17 0.0 0.0 0.00 0.00 0.00 58 1015.8
20260502012904 51 17 0.0 0.0 0.00 0.00 0.00 57 1016.0
20260502012403 51 17 0.0 0.0 0.00 0.00 0.00 55 1015.9
20260502011903 52 17 0.0 0.0 0.00 0.00 0.00 55 1015.9
20260502011403 52 17 0.0 0.0 0.00 0.00 0.00 55 1015.8
20260502010902 52 17 0.0 0.0 0.00 0.00 0.00 54 1015.7
20260502010405 52 17 0.0 0.0 0.00 0.00 0.00 55 1015.7
20260502005904 53 17 0.0 0.0 0.00 0.00 0.00 53 1015.6
20260502005403 53 17 0.0 0.0 0.00 0.00 0.00 52 1015.5
20260502004903 53 17 0.0 0.0 0.00 0.00 0.00 50 1015.4
20260502004403 54 17 0.0 0.0 0.00 0.00 0.00 50 1015.2
20260502003903 54 17 0.0 4.3 0.00 0.00 0.00 47 1015.2
20260502003403 54 17 0.9 4.3 0.00 0.00 0.00 46 1015.0
20260502002402 54 35 1.7 5.2 0.00 0.00 0.00 45 1014.8
20260502001903 55 16 0.9 5.2 0.00 0.00 0.00 45 1014.7
20260502001403 55 27 2.6 6.1 0.00 0.00 0.00 45 1014.6
20260502000403 55 26 3.5 6.1 0.00 0.00 0.00 45 1014.3
20260501235903 55 12 1.7 6.1 0.00 0.00 0.00 45 1014.2
20260501235403 55 20 3.5 6.1 0.00 0.00 0.00 46 1014.1
20260501234402 56 356 2.6 6.1 0.00 0.00 0.00 46 1013.8
20260501233403 56 21 4.3 6.1 0.00 0.00 0.00 46 1013.7
20260501232903 56 28 3.5 7.0 0.00 0.00 0.00 46 1013.5
20260501232403 56 19 4.3 7.0 0.00 0.00 0.00 46 1013.4
20260501231903 57 18 4.3 6.1 0.00 0.00 0.00 47 1013.3
20260501231403 57 13 1.7 6.1 0.00 0.00 0.00 46 1013.2
20260501230903 57 23 4.3 6.1 0.00 0.00 0.00 45 1013.1
20260501230403 57 26 1.7 7.0 0.00 0.00 0.00 44 1013.0
20260501225904 57 26 4.3 7.8 0.00 0.00 0.00 43 1012.9
20260501225403 58 30 5.2 7.8 0.00 0.00 0.00 44 1012.8
20260501224402 58 21 4.3 7.8 0.00 0.00 0.00 42 1012.6
20260501223904 58 12 5.2 7.8 0.00 0.00 0.00 42 1012.5
20260501223403 58 17 5.2 7.8 0.00 0.00 0.00 42 1012.4
20260501222403 58 13 3.5 7.8 0.00 0.00 0.00 44 1012.3
20260501221903 58 15 5.2 7.8 0.00 0.00 0.00 42 1012.1
20260501220903 58 38 4.3 7.8 0.00 0.00 0.00 44 1012.0
20260501220403 58 23 2.6 10.4 0.00 0.00 0.00 43 1011.9
20260501215904 58 326 4.3 10.4 0.00 0.00 0.00 43 1011.9
20260501214903 59 24 5.2 8.7 0.00 0.00 0.00 42 1011.9
20260501214403 59 18 6.1 8.7 0.00 0.00 0.00 42 1011.9
20260501213903 59 13 5.2 7.8 0.00 0.00 0.00 42 1011.9
20260501213403 59 4 1.7 7.8 0.00 0.00 0.00 43 1011.8
20260501212903 59 12 6.1 8.7 0.00 0.00 0.00 41 1011.7
20260501212403 59 24 5.2 8.7 0.00 0.00 0.00 40 1011.8
20260501211403 59 34 2.6 7.8 0.00 0.00 0.00 44 1011.7
20260501210903 60 17 4.3 8.7 0.00 0.00 0.00 44 1011.7
20260501210403 60 3 4.3 8.7 0.00 0.00 0.00 44 1011.6
20260501205903 60 41 3.5 11.3 0.00 0.00 0.00 44 1011.5
20260501205403 60 52 1.7 11.3 0.00 0.00 0.00 46 1011.4
20260501204903 60 22 3.5 7.0 0.00 0.00 0.00 47 1011.5
20260501204403 60 17 0.0 6.1 0.00 0.00 0.00 48 1011.5
20260501203903 60 15 2.6 7.8 0.00 0.00 0.00 48 1011.4
20260501203403 60 78 4.3 7.8 0.00 0.00 0.00 46 1011.4
20260501202902 60 20 3.5 7.0 0.00 0.00 0.00 51 1011.4
20260501202404 59 68 0.0 7.0 0.00 0.00 0.00 49 1011.3
20260501200902 59 11 5.2 8.7 0.00 0.00 0.00 48 1011.3
20260501200402 59 26 4.3 7.0 0.00 0.00 0.00 51 1011.2
20260501195903 60 11 4.3 7.0 0.00 0.00 0.00 50 1011.2
20260501193903 60 34 0.9 4.3 0.00 0.00 0.00 55 1011.1
20260501193403 60 25 0.0 7.0 0.00 0.00 0.00 55 1011.1
20260501192403 59 146 0.0 7.0 0.00 0.00 0.00 55 1011.1
20260501191903 58 4 2.6 6.1 0.00 0.00 0.00 56 1011.1
20260501191403 58 83 2.6 7.0 0.00 0.00 0.00 57 1011.2
20260501190903 57 9 2.6 7.8 0.00 0.00 0.00 57 1011.1
20260501190403 57 10 5.2 7.8 0.00 0.00 0.00 56 1011.1
20260501185403 57 28 2.6 7.0 0.00 0.00 0.00 57 1011.2
20260501184903 57 9 3.5 7.0 0.00 0.00 0.00 56 1011.2
20260501184403 57 11 2.6 7.0 0.00 0.00 0.00 56 1011.1
20260501183904 58 22 4.3 6.1 0.00 0.00 0.00 55 1011.1
20260501183404 58 10 4.3 7.0 0.00 0.00 0.00 55 1011.1
20260501182903 58 21 3.5 7.0 0.00 0.00 0.00 55 1011.0
20260501182404 59 10 1.7 7.0 0.00 0.00 0.00 54 1011.0
20260501181903 59 6 1.7 5.2 0.00 0.00 0.00 55 1011.0
20260501180903 59 43 0.0 7.0 0.00 0.00 0.00 56 1010.9
20260501180403 58 12 4.3 7.8 0.00 0.00 0.00 56 1010.9
20260501175905 58 36 4.3 7.8 0.00 0.00 0.00 55 1010.9
20260501175402 58 16 4.3 6.1 0.00 0.00 0.00 56 1010.9
20260501174902 57 20 2.6 10.4 0.00 0.00 0.00 56 1010.9
20260501174403 57 14 5.2 10.4 0.00 0.00 0.00 54 1011.0
20260501173902 58 0 0.9 8.7 0.00 0.00 0.00 56 1011.0
20260501173402 58 9 5.2 8.7 0.00 0.00 0.00 55 1011.1
20260501172903 58 71 4.3 6.1 0.00 0.00 0.00 57 1011.1
20260501171903 57 14 6.1 8.7 0.00 0.00 0.00 56 1011.1
20260501171403 57 13 4.3 7.8 0.00 0.00 0.00 58 1011.1
20260501170903 57 23 2.6 7.0 0.00 0.00 0.00 59 1011.2
20260501170404 56 19 2.6 7.0 0.00 0.00 0.00 59 1011.2
20260501165902 56 14 3.5 7.8 0.00 0.00 0.00 58 1011.2
20260501165403 56 19 4.3 8.7 0.00 0.00 0.00 59 1011.3
20260501164903 57 25 5.2 8.7 0.00 0.00 0.00 57 1011.3
20260501164403 57 354 5.2 7.8 0.00 0.00 0.00 56 1011.3
20260501163903 57 6 6.1 8.7 0.00 0.00 0.00 56 1011.4
20260501163403 57 25 5.2 8.7 0.00 0.00 0.00 56 1011.3
20260501162903 58 12 4.3 7.0 0.00 0.00 0.00 57 1011.3
20260501162403 59 21 4.3 7.0 0.00 0.00 0.00 57 1011.3
20260501161404 58 7 1.7 7.0 0.00 0.00 0.00 59 1011.4
20260501160903 58 11 0.9 6.1 0.00 0.00 0.00 60 1011.3
20260501160403 57 40 2.6 7.8 0.00 0.00 0.00 61 1011.5
20260501155903 56 48 2.6 7.8 0.00 0.00 0.00 59 1011.4
20260501155403 56 0 0.9 7.0 0.00 0.00 0.00 60 1011.5
20260501154903 55 18 4.3 7.0 0.00 0.00 0.00 60 1011.5
20260501154403 55 5 4.3 7.0 0.00 0.00 0.00 60 1011.5